Hourly Weather Barlozno

Today, 23 September, Wednesday

Time Temperature Precipitation Wind Pressure Humidity
00:00 +17°C° 0 mm 3 mps 750 mmHg 64%
01:00 +17°C° 0 mm 3 mps 750 mmHg 66%
02:00 +16°C° 0 mm 3 mps 750 mmHg 68%
03:00 +16°C° 0 mm 3 mps 749 mmHg 70%
04:00 +16°C° 0 mm 3 mps 749 mmHg 72%
05:00 +16°C° 0 mm 3 mps 749 mmHg 70%
06:00 +16°C° 0 mm 3 mps 749 mmHg 69%
07:00 +17°C° 0 mm 3 mps 749 mmHg 68%
08:00 +19°C° 0 mm 3 mps 749 mmHg 61%
09:00 +21°C° 0 mm 4 mps 749 mmHg 54%
10:00 +23°C° 0 mm 4 mps 749 mmHg 47%
11:00 +25°C° 0 mm 4 mps 749 mmHg 44%
12:00 +26°C° 0 mm 4 mps 748 mmHg 41%
13:00 +27°C° 0 mm 4 mps 748 mmHg 38%
14:00 +27°C° 0 mm 4 mps 748 mmHg 40%
15:00 +27°C° 0 mm 3 mps 748 mmHg 42%
16:00 +26°C° 0 mm 3 mps 747 mmHg 44%
17:00 +25°C° 0 mm 3 mps 747 mmHg 49%
18:00 +23°C° 0 mm 2 mps 747 mmHg 54%
19:00 +20°C° 0 mm 2 mps 747 mmHg 58%
20:00 +20°C° 0 mm 2 mps 747 mmHg 61%
21:00 +19°C° 0 mm 2 mps 747 mmHg 65%
22:00 +19°C° 0 mm 2 mps 747 mmHg 68%
23:00 +18°C° 0 mm 2 mps 747 mmHg 71%

Tomorrow, 24 September, Thursday

Time Temperature Precipitation Wind Pressure Humidity
00:00 +18°C° 0 mm 2 mps 747 mmHg 74%
01:00 +17°C° 0 mm 2 mps 747 mmHg 78%
02:00 +17°C° 0 mm 2 mps 747 mmHg 80%
03:00 +16°C° 0 mm 2 mps 747 mmHg 82%
04:00 +16°C° 0 mm 2 mps 747 mmHg 85%
05:00 +16°C° 0 mm 3 mps 747 mmHg 84%
06:00 +17°C° 0 mm 3 mps 747 mmHg 82%
07:00 +17°C° 0 mm 3 mps 747 mmHg 81%
08:00 +19°C° 0 mm 3 mps 747 mmHg 73%
09:00 +21°C° 0 mm 3 mps 747 mmHg 65%
10:00 +23°C° 0 mm 4 mps 747 mmHg 57%
11:00 +25°C° 0 mm 4 mps 747 mmHg 52%
12:00 +25°C° 0 mm 4 mps 747 mmHg 48%
13:00 +26°C° 0 mm 4 mps 747 mmHg 43%
14:00 +26°C° 0 mm 4 mps 747 mmHg 44%
15:00 +25°C° 0 mm 3 mps 747 mmHg 46%
16:00 +25°C° 0 mm 3 mps 747 mmHg 48%
17:00 +23°C° 0 mm 2 mps 747 mmHg 53%
18:00 +21°C° 0 mm 2 mps 747 mmHg 57%
19:00 +19°C° 0 mm 2 mps 747 mmHg 62%
20:00 +19°C° 0 mm 2 mps 747 mmHg 67%
21:00 +18°C° 0 mm 2 mps 748 mmHg 72%
22:00 +18°C° 0 mm 1 mps 748 mmHg 77%
23:00 +18°C° 0 mm 1 mps 747 mmHg 79%

Day after tomorrow, 25 September, Friday

Time Temperature Precipitation Wind Pressure Humidity
00:00 +18°C° 0 mm 1 mps 747 mmHg 81%
01:00 +16°C° 0 mm 1 mps 747 mmHg 82%
02:00 +16°C° 0 mm 1 mps 747 mmHg 83%
03:00 +16°C° 0 mm 1 mps 746 mmHg 83%
04:00 +15°C° 0 mm 2 mps 746 mmHg 83%
05:00 +16°C° 0 mm 2 mps 745 mmHg 82%
06:00 +16°C° 0 mm 2 mps 745 mmHg 80%
07:00 +17°C° 0 mm 3 mps 744 mmHg 78%
08:00 +19°C° 0 mm 4 mps 744 mmHg 71%
09:00 +21°C° 0 mm 5 mps 743 mmHg 64%
10:00 +23°C° 0 mm 6 mps 743 mmHg 57%
11:00 +23°C° 0 mm 6 mps 742 mmHg 56%
12:00 +24°C° 0 mm 7 mps 741 mmHg 54%
13:00 +26°C° 0 mm 7 mps 740 mmHg 53%
14:00 +23°C° 0.5 mm 7 mps 740 mmHg 58%
15:00 +22°C° 0.5 mm 7 mps 740 mmHg 63%
16:00 +21°C° 0.5 mm 7 mps 739 mmHg 68%
17:00 +20°C° 0.1 mm 6 mps 739 mmHg 72%
18:00 +19°C° 0.1 mm 6 mps 739 mmHg 75%
19:00 +17°C° 0.1 mm 6 mps 740 mmHg 79%
20:00 +17°C° 0 mm 5 mps 740 mmHg 82%
21:00 +17°C° 0 mm 4 mps 740 mmHg 85%
22:00 +17°C° 0 mm 3 mps 741 mmHg 88%
23:00 +16°C° 0 mm 3 mps 741 mmHg 89%

26 September, Saturday

Time Temperature Precipitation Wind Pressure Humidity
00:00 +16°C° 0 mm 2 mps 741 mmHg 90%
01:00 +15°C° 0 mm 1 mps 741 mmHg 91%
02:00 +15°C° 0 mm 2 mps 741 mmHg 91%
03:00 +15°C° 0 mm 2 mps 741 mmHg 92%
04:00 +15°C° 0 mm 2 mps 741 mmHg 92%
05:00 +14°C° 0.1 mm 3 mps 741 mmHg 92%
06:00 +16°C° 0.1 mm 3 mps 740 mmHg 92%
07:00 +16°C° 0.1 mm 3 mps 740 mmHg 92%
08:00 +15°C° 0.4 mm 4 mps 740 mmHg 91%
09:00 +17°C° 0.4 mm 4 mps 740 mmHg 90%
10:00 +17°C° 0.4 mm 4 mps 739 mmHg 89%
11:00 +18°C° 0 mm 4 mps 739 mmHg 86%
12:00 +18°C° 0 mm 4 mps 739 mmHg 84%
13:00 +19°C° 0 mm 4 mps 739 mmHg 81%
14:00 +19°C° 0 mm 4 mps 739 mmHg 81%
15:00 +19°C° 0 mm 4 mps 739 mmHg 81%
16:00 +19°C° 0 mm 4 mps 739 mmHg 81%
17:00 +19°C° 0.1 mm 3 mps 739 mmHg 83%
18:00 +18°C° 0.1 mm 3 mps 739 mmHg 85%
19:00 +18°C° 0.1 mm 2 mps 739 mmHg 88%
20:00 +18°C° 0.9 mm 2 mps 739 mmHg 89%
21:00 +18°C° 0.9 mm 3 mps 739 mmHg 91%
22:00 +18°C° 0.9 mm 3 mps 739 mmHg 93%
23:00 +18°C° 0.2 mm 3 mps 739 mmHg 87%

27 September, Sunday

Time Temperature Precipitation Wind Pressure Humidity
00:00 +18°C° 0.2 mm 4 mps 739 mmHg 82%
01:00 +17°C° 0.2 mm 5 mps 739 mmHg 77%
02:00 +17°C° 0 mm 5 mps 739 mmHg 74%
03:00 +17°C° 0 mm 5 mps 739 mmHg 71%
04:00 +16°C° 0 mm 6 mps 739 mmHg 69%
05:00 +17°C° 0 mm 6 mps 739 mmHg 68%
06:00 +17°C° 0 mm 6 mps 739 mmHg 68%
07:00 +17°C° 0 mm 6 mps 739 mmHg 68%
08:00 +18°C° 0 mm 7 mps 739 mmHg 65%
09:00 +20°C° 0 mm 8 mps 740 mmHg 63%
10:00 +21°C° 0 mm 9 mps 740 mmHg 60%
11:00 +21°C° 0 mm 8 mps 740 mmHg 62%
12:00 +21°C° 0 mm 7 mps 741 mmHg 65%
13:00 +21°C° 0 mm 6 mps 741 mmHg 67%
14:00 +20°C° 0.3 mm 6 mps 741 mmHg 71%
15:00 +19°C° 0.3 mm 6 mps 741 mmHg 75%
16:00 +17°C° 0.3 mm 5 mps 741 mmHg 79%
17:00 +17°C° 0.1 mm 5 mps 741 mmHg 79%
18:00 +16°C° 0.1 mm 5 mps 742 mmHg 79%
19:00 +17°C° 0.1 mm 4 mps 742 mmHg 79%
20:00 +17°C° 0.1 mm 4 mps 742 mmHg 80%
21:00 +17°C° 0.1 mm 4 mps 742 mmHg 81%
22:00 +17°C° 0.1 mm 4 mps 742 mmHg 83%
23:00 +15°C° 0.1 mm 4 mps 743 mmHg 85%

28 September, Monday

Time Temperature Precipitation Wind Pressure Humidity
00:00 +15°C° 0.1 mm 5 mps 743 mmHg 87%
01:00 +14°C° 0.1 mm 5 mps 743 mmHg 89%
02:00 +13°C° 0.1 mm 5 mps 743 mmHg 88%
03:00 +12°C° 0.1 mm 5 mps 744 mmHg 87%
04:00 +12°C° 0.1 mm 5 mps 744 mmHg 86%
05:00 +11°C° 0.1 mm 4 mps 745 mmHg 86%
06:00 +11°C° 0.1 mm 4 mps 745 mmHg 86%
07:00 +10°C° 0.1 mm 4 mps 746 mmHg 86%
08:00 +11°C° 0 mm 4 mps 746 mmHg 80%
09:00 +12°C° 0 mm 4 mps 747 mmHg 74%
10:00 +13°C° 0 mm 4 mps 748 mmHg 67%
11:00 +14°C° 0 mm 4 mps 748 mmHg 64%
12:00 +14°C° 0 mm 4 mps 748 mmHg 60%
13:00 +15°C° 0 mm 4 mps 748 mmHg 56%
14:00 +15°C° 0 mm 4 mps 749 mmHg 56%
15:00 +16°C° 0 mm 3 mps 749 mmHg 57%
16:00 +14°C° 0 mm 3 mps 749 mmHg 58%
17:00 +13°C° 0 mm 3 mps 749 mmHg 63%
18:00 +13°C° 0 mm 2 mps 750 mmHg 68%
19:00 +12°C° 0 mm 2 mps 750 mmHg 74%
20:00 +12°C° 0 mm 2 mps 750 mmHg 75%
21:00 +10°C° 0 mm 2 mps 751 mmHg 76%
22:00 +11°C° 0 mm 1 mps 751 mmHg 77%
23:00 +10°C° 0 mm 1 mps 751 mmHg 78%
Show more